Regional Weather Roundup
Issued by NWS

Home | Current Version | Previous Version | Text Only | Print | Product List | Glossary Off
Versions: 1 2 3 4 5 6 7 8 9 10 11 12 13 14 15 16 17 18 19 20 21 22 23 24 25 26 27 28 29 30 31 32 33 34 35 36 37 38 39 40 41 42 43 44 45 46 47 48 49 50

000
ASUS43 KMKX 260625
RWRWI

WISCONSIN REGIONAL WEATHER ROUNDUP
NATIONAL WEATHER SERVICE MILWAUKEE/SULLIVAN WI
100 AM CDT SUN OCT 26 2014

NOTE: "FAIR" INDICATES FEW OR NO CLOUDS BELOW 12,000 FEET WITH NO
SIGNIFICANT WEATHER AND/OR OBSTRUCTIONS TO VISIBILITY.

WIZ001-002-006>008-014>016-023>028-260700-
NORTHWEST WISCONSIN

CITY           SKY/WX    TMP DP  RH WIND       PRES   REMARKS
SUPERIOR ARPT  CLEAR     36  27  70 SW6       29.99S WCI  31
6HR MIN TEMP:  34; 6HR MAX TEMP:  53;

ASHLAND        CLEAR     38  28  67 W5        29.98R WCI  34
6HR MIN TEMP:  37; 6HR MAX TEMP:  51;

HAYWARD        CLEAR     33  26  75 CALM      30.00S
6HR MIN TEMP:  33; 6HR MAX TEMP:  54;

SIREN          CLEAR     38  27  65 CALM      30.02F
6HR MIN TEMP:  36; 6HR MAX TEMP:  51;

CUMBERLAND     CLEAR     37  27  65 W7        30.01F WCI  32
RICE LAKE      CLEAR     36  29  75 CALM      30.03S
6HR MIN TEMP:  36; 6HR MAX TEMP:  53;

CHETEK         CLEAR     35  28  76 CALM      30.02S
6HR MIN TEMP:  35; 6HR MAX TEMP:  55;

LADYSMITH      CLEAR     42  29  58 W5        30.01S
6HR MIN TEMP:  42; 6HR MAX TEMP:  53;

EAU CLAIRE     CLEAR     43  27  53 W5        30.02S
6HR MIN TEMP:  40; 6HR MAX TEMP:  55;

MENOMONIE      CLEAR     45  28  53 W6        30.04R
6HR MIN TEMP:  45; 6HR MAX TEMP:  55;

NEW RICHMOND   CLEAR     37  30  77 CALM      30.04S
6HR MIN TEMP:  37; 6HR MAX TEMP:  51;

OSCEOLA        CLEAR     34  29  85 CALM      30.06S
6HR MIN TEMP:  33; 6HR MAX TEMP:  54;

$$

WIZ003>005-009-010-017-018-260700-
NORTH CENTRAL WISCONSIN

CITY           SKY/WX    TMP DP  RH WIND       PRES   REMARKS
MANITOWISH WTR CLEAR     39  28  63 W3        29.94S
6HR MIN TEMP:  37; 6HR MAX TEMP:  50;

ARBOR VITAE    CLEAR     44  28  52 NW3       29.94S
6HR MIN TEMP:  44; 6HR MAX TEMP:  53;

WOODRUFF       CLEAR     44  28  52 NW3       29.94S
6HR MIN TEMP:  44; 6HR MAX TEMP:  53;

RHINELANDER    CLEAR     39  25  57 W7        29.95S WCI  34
6HR MIN TEMP:  38; 6HR MAX TEMP:  52;

EAGLE RIVER    CLEAR     41  26  54 NW7       29.92S
6HR MIN TEMP:  41; 6HR MAX TEMP:  51;

LAND O LAKES   CLEAR     42  29  59 W6        29.93S
6HR MIN TEMP:  42; 6HR MAX TEMP:  52;

PHILLIPS       CLEAR     40  26  56 CALM      29.97S
6HR MIN TEMP:  40; 6HR MAX TEMP:  52;

TOMAHAWK       CLEAR     39  25  56 CALM      29.97R
6HR MIN TEMP:  39; 6HR MAX TEMP:  51;

MEDFORD        CLEAR     40  25  56 W6        29.98S
6HR MIN TEMP:  40; 6HR MAX TEMP:  51;

MERRILL        CLEAR     44  26  47 NW5       29.97S
6HR MIN TEMP:  44; 6HR MAX TEMP:  53;

$$

WIZ029-030-035-036-043>047-260700-
CENTRAL WISCONSIN

CITY           SKY/WX    TMP DP  RH WIND       PRES   REMARKS
WAUSAU         CLEAR     42  26  53 CALM      29.96S
6HR MIN TEMP:  42; 6HR MAX TEMP:  52;

MOSINEE        CLEAR     43  27  52 W8        29.99R
MARSHFIELD     CLEAR     41  26  55 W7        29.99R
6HR MIN TEMP:  41; 6HR MAX TEMP:  51;

STEVENS POINT  CLEAR     41  26  53 W5        29.98S
6HR MIN TEMP:  41; 6HR MAX TEMP:  54; 6HR PCP:  0.01;

WAUPACA        CLEAR     47  26  43 W7        29.97S
6HR MIN TEMP:  46; 6HR MAX TEMP:  58;

WAUTOMA        CLOUDY    41  29  62 NW6       30.00R
6HR MIN TEMP:  41; 6HR MAX TEMP:  54;

WISC RAPIDS    CLEAR     40  27  59 W5        30.01R
6HR MIN TEMP:  35; 6HR MAX TEMP:  56;

CAMP DOUGLAS   NOT AVBL
$$

WIZ011>013-019>022-031-037>040-048>050-260700-
NORTHEAST WISCONSIN

CITY           SKY/WX    TMP DP  RH WIND       PRES   REMARKS
ANTIGO         CLEAR     40  26  56 W9        29.95R WCI  34
6HR MIN TEMP:  40; 6HR MAX TEMP:  51;

SHAWANO        CLEAR     47  25  43 W5        29.94S
6HR MIN TEMP:  46; 6HR MAX TEMP:  58;

OCONTO         CLEAR     43  26  51 W5        29.91R
6HR MIN TEMP:  43; 6HR MAX TEMP:  55;

STURGEON BAY   CLEAR     48  28  46 NW14      29.91R
6HR MIN TEMP:  48; 6HR MAX TEMP:  57;

GREEN BAY      CLEAR     46  29  51 W10       29.93S
6HR MIN TEMP:  46; 6HR MAX TEMP:  56;

MANITOWOC      CLEAR     49  28  44 NW13      29.93R
6HR MIN TEMP:  49; 6HR MAX TEMP:  57;

APPLETON       CLEAR     41  28  60 W10       29.96S
CLINTONVILLE   CLEAR     45  27  49 NW7       29.95S
OSHKOSH        CLEAR     45  29  53 W8        29.96R
6HR MIN TEMP:  45; 6HR MAX TEMP:  54;

$$

WIZ032>034-041-042-053>061-260700-
SOUTHWEST WISCONSIN

CITY           SKY/WX    TMP DP  RH WIND       PRES   REMARKS
LA CROSSE      CLEAR     42  35  76 CALM      30.04R
6HR MIN TEMP:  40; 6HR MAX TEMP:  57;

SPARTA         CLEAR     35  29  81 CALM      30.04R
6HR MIN TEMP:  34; 6HR MAX TEMP:  56;

VIROQUA        CLEAR     43  29  58 NW3       30.03R
6HR MIN TEMP:  42; 6HR MAX TEMP:  53;

BOSCOBEL       CLEAR     36  34  92 CALM      30.04R
6HR MIN TEMP:  36; 6HR MAX TEMP:  61;

PRAIRIE DU CHI CLEAR     43  34  70 CALM      30.04S
6HR MIN TEMP:  39; 6HR MAX TEMP:  57;

PLATTEVILLE    CLEAR     46  31  54 W3        30.04R
6HR MIN TEMP:  45; 6HR MAX TEMP:  56;

$$

WIZ056-057-062-063-064-067-068-260700-
SOUTH CENTRAL WISCONSIN

CITY           SKY/WX    TMP DP  RH WIND       PRES   REMARKS
REEDSBURG      CLEAR     39  32  73 CALM      30.01R
6HR MIN TEMP:  39; 6HR MAX TEMP:  55;

BARABOO/DELLS  CLEAR     46  27  46 NW3       30.00S
6HR MIN TEMP:  46; 6HR MAX TEMP:  55;

LONE ROCK      CLEAR     43  31  62 NW3       30.03R
6HR MIN TEMP:  43; 6HR MAX TEMP:  62;

MINERAL POINT  CLEAR     45  30  57 W3        30.03R
MADISON        CLEAR     49  28  44 W7        30.00R
6HR MIN TEMP:  49; 6HR MAX TEMP:  58;

MIDDLETON      CLEAR     45  28  52 W5        30.01S
6HR MIN TEMP:  43; 6HR MAX TEMP:  58;

WATERTOWN      CLEAR     45  30  56 W6        29.98S
6HR MIN TEMP:  42; 6HR MAX TEMP:  56;

MONROE         FAIR      48  30  49 W10       30.00S
JANESVILLE     CLEAR     45  28  53 CALM      29.99S
$$

WIZ051-052-058>065-066-070>072-260700-
SOUTHEAST WISCONSIN

CITY           SKY/WX    TMP DP  RH WIND       PRES   REMARKS
MILWAUKEE      CLEAR     52  27  38 NW10      29.96R
6HR MIN TEMP:  52; 6HR MAX TEMP:  62;

WAUKESHA       CLEAR     43  30  61 W10       29.98S
MILWAUKEE/TIMM CLEAR     46  27  46 NW9       29.97S
RACINE         CLEAR     51  28  41 W7        29.97R
6HR MIN TEMP:  51; 6HR MAX TEMP:  60;

BURLINGTON     CLEAR     46  29  50 NW7       29.98R
6HR MIN TEMP:  46; 6HR MAX TEMP:  54;

KENOSHA        CLEAR     48  30  49 W7        29.97R
6HR MIN TEMP:  48; 6HR MAX TEMP:  60;

FOND DU LAC    CLEAR     46  28  49 W10       29.96R
6HR MIN TEMP:  45; 6HR MAX TEMP:  55;

SHEBOYGAN      CLEAR     46  30  53 W7        29.94R
6HR MIN TEMP:  46; 6HR MAX TEMP:  58;

WEST BEND      CLEAR     46  27  46 NW6       29.96R
JUNEAU         CLEAR     46  29  50 W7        29.99R
$$

LSZ147-162-260700-
LAKE SUPERIOR

STATION/POSITION TIME  TEMP    WIND        PRES    WAVE
                       AIR SEA DIR/SP/G            HT/PER
                 (UTC) (F)     (DEG/KT/KT) (MB)    (FT/S)
W MID LAKE BUOY  0550   48 45  290/ 12/ 14 1012.7R   3/ 5
DEVILS ISLAND    0600   50     280/ 15/ 17 1014.2R
PORT WING        0500   51     260/  9/ 12 1014.9F
SAXON HARBOR     0500   45     220/  4/  8 1014.6
$$

LMZ867-665-643>646-260700-
LAKE MICHIGAN

STATION/POSITION TIME  TEMP    WIND        PRES    WAVE
                       AIR SEA DIR/SP/G            HT/PER



USA.gov is the U.S. government's official web portal to all federal, state and local government web resources and services.